Regional Weather Roundup
Issued by NWS Cleveland, OH

Home | Current Version | Previous Version | Graphics & Text | Print | Product List | Glossary On
Versions: 1 2 3 4 5 6 7 8 9 10 11 12 13 14 15 16 17 18 19 20 21 22 23 24 25 26 27 28 29 30 31 32 33 34 35 36 37 38 39 40 41 42 43 44 45 46 47 48 49 50
000
ASUS41 KCLE 241902
RWRCLE
OHIO REGIONAL WEATHER ROUNDUP
NATIONAL WEATHER SERVICE CLEVELAND, OH
300 PM EDT MON APR 24 2017

NOTE: "FAIR" INDICATES FEW OR NO CLOUDS BELOW 12,000 FEET WITH NO
SIGNIFICANT WEATHER AND/OR OBSTRUCTIONS TO VISIBILITY.

OHZ001>008-015>018-024>027-034-035-043-044-242000-
   NORTHWEST OHIO

CITY           SKY/WX    TMP DP  RH WIND       PRES   REMARKS
DEFIANCE       SUNNY     68  36  30 E16G22    29.95F
FINDLAY        SUNNY     72  40  31 NE16G22   29.93F
TOLEDO EXPRESS SUNNY     63  35  35 NE22      29.98F
TOLEDO EXEC    SUNNY     61  41  47 E13G21    30.00F
LIMA           SUNNY     73  31  21 NE13G18   29.92F
$$

OHZ009>014-019>023-028>033-038-089-242000-
   NORTHEAST OHIO

CITY           SKY/WX    TMP DP  RH WIND       PRES   REMARKS
CLE-HOPKINS    MOSUNNY   67  40  37 N13       29.99F
CLE-LAKEFRONT  SUNNY     55  47  74 NE20      29.96F
CUY CO. ARPT   MOSUNNY   73  32  21 E14       29.98F
LORAIN-ELYRIA  SUNNY     65  38  36 E16       29.96F
ASHTABULA      SUNNY     66  38  35 NE10G21   30.01F
AKRON-CANTON   MOSUNNY   70  45  40 SE16G31   29.97F
WOOSTER        SUNNY     70  47  43 SE17G23   29.96F
MANSFIELD      SUNNY     71  44  37 E14G24    29.94F
YOUNGSTOWN     MOSUNNY   71  36  27 SE20G26   29.99F
$$

OHZ042-051>053-060>062-070>072-077>081-242000-
  SOUTHWEST OHIO

CITY           SKY/WX    TMP DP  RH WIND       PRES   REMARKS
CINC-COVINGTON MOSUNNY   72  50  45 E14       29.84F
CINC-LUNKEN    SUNNY     72  55  55 E12G22    29.85F
HAMILTON       SUNNY     74  54  49 E15G23    29.87F
DAYTON         MOSUNNY   73  46  38 E17G23    29.88F
WRIGHT-PAT AFB MOSUNNY   75  47  36 E13G23    29.87F
DAYTON GENERAL SUNNY     73  51  46 E15G23    29.86F
WILMINGTON     MOSUNNY   69  52  54 E14G23    29.87F
$$

OHZ036-037-039>041-045>050-054>059-063>069-073>076-082>088-242000-
  CENTRAL AND SOUTHEAST OHIO

CITY           SKY/WX    TMP DP  RH WIND       PRES   REMARKS
COLUMBUS       CLOUDY    69  49  48 SE16      29.91F
OSU AIRPORT    CLOUDY    70  49  47 E17       29.90F
BOLTON FIELD   PTSUNNY   68  50  52 SE14G21   29.91F
RICKENBACK AFB CLOUDY    67  51  55 E18G26    29.90F
NEWARK         CLOUDY    68  47  46 E13       29.92F
MARION         SUNNY     74  42  31 E15G23    29.92F
LANCASTER      CLOUDY    65  51  60 E13       29.93S
ZANESVILLE     CLOUDY    63  47  55 E12       29.96S
NEW PHILLY     NOT AVBL
$$




USA.gov is the U.S. government's official web portal to all federal, state and local government web resources and services.